Location: Davayat
(45.9471°N, 3.1105°E)
Time: 18:14:40
(UTC+00:00)

CORIOLIS - Pass Details

Date: 01 December 2020
Orbit: 818 x 839 km, 98.7° (Epoch: 17 January)

Event Time Altitude Azimuth Distance (km) Brightness Sun altitude
Rises 17:25:07 0° 169° (S) 3,362 7.4 -13.6°
Reaches altitude 10° 17:27:27 10° 171° (S) 2,435 6.7 -14.0°
Maximum altitude 17:32:51 74° 256° (WSW) 873 4.4 -14.9°
Drops below altitude 10° 17:38:19 10° 342° (NNW) 2,463 6.7 -15.8°
Sets 17:40:43 0° 345° (NNW) 3,403 7.4 -16.2°
